contact:dominique.lefevre@mio.osupytheas.fr, maurice.libes@osupytheas.fr, didier.mallarino@osupytheas.fr
Project:EMSO http://www.emso-fr.org/EMSO-France
Depth: 2436.0 m
Title:EMSO Ligure Ouest : Data MII capteur MICROCAT
DateTime_Computer,Latitude,Longitude,Temperature,Conductivity,Pressure,DateTime_Instrument
DateTime_Computer,Latitude,Longitude,degC,S m-1,dbar,DateTime_Instrument
2021-11-20T00:00:31Z,42.805,6.029,13.3005,4.60060,2470.25,2021-11-20T02:01:58Z
2021-11-20T00:03:35Z,42.805,6.029,13.3000,4.60053,2470.25,2021-11-20T02:05:01Z
2021-11-20T00:06:38Z,42.805,6.029,13.3004,4.60062,2470.217,2021-11-20T02:08:04Z
2021-11-20T00:09:41Z,42.805,6.029,13.2998,4.60053,2470.227,2021-11-20T02:11:07Z
2021-11-20T00:12:44Z,42.805,6.029,13.2997,4.60070,2470.24,2021-11-20T02:14:10Z
2021-11-20T00:15:47Z,42.805,6.029,13.3005,4.60054,2470.24,2021-11-20T02:17:13Z
2021-11-20T00:18:50Z,42.805,6.029,13.3001,4.60054,2470.25,2021-11-20T02:20:17Z
2021-11-20T00:21:53Z,42.805,6.029,13.3000,4.60061,2470.24,2021-11-20T02:23:20Z
2021-11-20T00:24:56Z,42.805,6.029,13.3000,4.60037,2470.227,2021-11-20T02:26:23Z
2021-11-20T00:28:00Z,42.805,6.029,13.3003,4.60052,2470.264,2021-11-20T02:29:26Z
2021-11-20T00:31:03Z,42.805,6.029,13.3006,4.60067,2470.25,2021-11-20T02:32:29Z
2021-11-20T00:34:06Z,42.805,6.029,13.3015,4.60052,2470.227,2021-11-20T02:35:32Z
2021-11-20T00:37:09Z,42.805,6.029,13.3000,4.60046,2470.227,2021-11-20T02:38:35Z
2021-11-20T00:40:12Z,42.805,6.029,13.3012,4.60069,2470.25,2021-11-20T02:41:38Z
2021-11-20T00:43:15Z,42.805,6.029,13.3000,4.60052,2470.203,2021-11-20T02:44:42Z
2021-11-20T00:46:18Z,42.805,6.029,13.3002,4.60052,2470.217,2021-11-20T02:47:45Z
2021-11-20T00:49:21Z,42.805,6.029,13.3011,4.60050,2470.227,2021-11-20T02:50:48Z
2021-11-20T00:52:25Z,42.805,6.029,13.3004,4.60050,2470.203,2021-11-20T02:53:51Z
2021-11-20T00:55:28Z,42.805,6.029,13.3005,4.60034,2470.203,2021-11-20T02:56:54Z
2021-11-20T00:58:31Z,42.805,6.029,13.3004,4.60033,2470.203,2021-11-20T02:59:57Z
2021-11-20T01:01:34Z,42.805,6.029,13.3000,4.60042,2470.227,2021-11-20T03:03:00Z
2021-11-20T01:04:37Z,42.805,6.029,13.3003,4.60042,2470.203,2021-11-20T03:06:03Z
2021-11-20T01:07:40Z,42.805,6.029,13.3000,4.60062,2470.18,2021-11-20T03:09:07Z
2021-11-20T01:10:43Z,42.805,6.029,13.3004,4.60051,2470.194,2021-11-20T03:12:10Z
2021-11-20T01:13:46Z,42.805,6.029,13.3008,4.60068,2470.24,2021-11-20T03:15:13Z
2021-11-20T01:16:50Z,42.805,6.029,13.3002,4.60069,2470.203,2021-11-20T03:18:16Z
2021-11-20T01:19:53Z,42.805,6.029,13.3009,4.60057,2470.171,2021-11-20T03:21:19Z
2021-11-20T01:22:56Z,42.805,6.029,13.3007,4.60046,2470.203,2021-11-20T03:24:22Z
2021-11-20T01:25:59Z,42.805,6.029,13.3004,4.60057,2470.227,2021-11-20T03:27:25Z
2021-11-20T01:29:02Z,42.805,6.029,13.3001,4.60052,2470.24,2021-11-20T03:30:28Z
2021-11-20T01:32:05Z,42.805,6.029,13.3000,4.60049,2470.217,2021-11-20T03:33:32Z
2021-11-20T01:35:08Z,42.805,6.029,13.3008,4.60066,2470.217,2021-11-20T03:36:35Z
2021-11-20T01:38:11Z,42.805,6.029,13.3009,4.60057,2470.203,2021-11-20T03:39:38Z
2021-11-20T01:41:15Z,42.805,6.029,13.3009,4.60062,2470.203,2021-11-20T03:42:41Z
2021-11-20T01:44:18Z,42.805,6.029,13.3007,4.60051,2470.217,2021-11-20T03:45:44Z
2021-11-20T01:47:21Z,42.805,6.029,13.3011,4.60058,2470.203,2021-11-20T03:48:47Z
2021-11-20T01:50:24Z,42.805,6.029,13.2998,4.60043,2470.24,2021-11-20T03:51:50Z
2021-11-20T01:53:27Z,42.805,6.029,13.2995,4.60039,2470.24,2021-11-20T03:54:53Z
2021-11-20T01:56:30Z,42.805,6.029,13.3000,4.60039,2470.203,2021-11-20T03:57:57Z
2021-11-20T01:59:33Z,42.805,6.029,13.2999,4.60041,2470.203,2021-11-20T04:01:00Z
2021-11-20T02:02:36Z,42.805,6.029,13.3001,4.60072,2470.18,2021-11-20T04:04:03Z
2021-11-20T02:05:40Z,42.805,6.029,13.3001,4.60049,2470.203,2021-11-20T04:07:06Z
2021-11-20T02:08:43Z,42.805,6.029,13.3001,4.60046,2470.203,2021-11-20T04:10:09Z
2021-11-20T02:11:46Z,42.805,6.029,13.2998,4.60040,2470.194,2021-11-20T04:13:12Z
2021-11-20T02:14:49Z,42.805,6.029,13.3000,4.60049,2470.203,2021-11-20T04:16:15Z
2021-11-20T02:17:52Z,42.805,6.029,13.3002,4.60052,2470.203,2021-11-20T04:19:18Z
2021-11-20T02:20:55Z,42.805,6.029,13.2996,4.60032,2470.217,2021-11-20T04:22:22Z
2021-11-20T02:23:58Z,42.805,6.029,13.2998,4.60040,2470.227,2021-11-20T04:25:25Z
2021-11-20T02:27:01Z,42.805,6.029,13.2998,4.60036,2470.227,2021-11-20T04:28:28Z
2021-11-20T02:30:05Z,42.805,6.029,13.3001,4.60039,2470.227,2021-11-20T04:31:31Z
2021-11-20T02:33:08Z,42.805,6.029,13.3001,4.60057,2470.203,2021-11-20T04:34:34Z
2021-11-20T02:36:11Z,42.805,6.029,13.2996,4.60033,2470.189,2021-11-20T04:37:37Z
2021-11-20T02:39:14Z,42.805,6.029,13.3001,4.60038,2470.217,2021-11-20T04:40:40Z
2021-11-20T02:42:17Z,42.805,6.029,13.3008,4.60064,2470.213,2021-11-20T04:43:43Z
2021-11-20T02:45:20Z,42.805,6.029,13.2998,4.60059,2470.227,2021-11-20T04:46:47Z
2021-11-20T02:48:23Z,42.805,6.029,13.2995,4.60032,2470.203,2021-11-20T04:49:50Z
2021-11-20T02:51:26Z,42.805,6.029,13.3000,4.60054,2470.25,2021-11-20T04:52:53Z
2021-11-20T02:54:30Z,42.805,6.029,13.3011,4.60077,2470.25,2021-11-20T04:55:56Z
2021-11-20T02:57:33Z,42.805,6.029,13.3001,4.60040,2470.227,2021-11-20T04:58:59Z
2021-11-20T03:00:36Z,42.805,6.029,13.3006,4.60041,2470.227,2021-11-20T05:02:02Z
2021-11-20T03:03:39Z,42.805,6.029,13.2999,4.60042,2470.227,2021-11-20T05:05:05Z
2021-11-20T03:06:42Z,42.805,6.029,13.3003,4.60037,2470.227,2021-11-20T05:08:08Z
2021-11-20T03:09:45Z,42.805,6.029,13.3001,4.60041,2470.24,2021-11-20T05:11:11Z
2021-11-20T03:12:48Z,42.805,6.029,13.3004,4.60061,2470.227,2021-11-20T05:14:15Z
2021-11-20T03:15:51Z,42.805,6.029,13.2997,4.60051,2470.264,2021-11-20T05:17:18Z
2021-11-20T03:18:54Z,42.805,6.029,13.2997,4.60031,2470.264,2021-11-20T05:20:21Z
2021-11-20T03:21:58Z,42.805,6.029,13.2997,4.60046,2470.264,2021-11-20T05:23:24Z
2021-11-20T03:25:01Z,42.805,6.029,13.3006,4.60044,2470.25,2021-11-20T05:26:27Z
2021-11-20T03:28:04Z,42.805,6.029,13.3003,4.60033,2470.227,2021-11-20T05:29:30Z
2021-11-20T03:31:07Z,42.805,6.029,13.3002,4.60042,2470.227,2021-11-20T05:32:33Z
2021-11-20T03:34:10Z,42.805,6.029,13.3003,4.60044,2470.273,2021-11-20T05:35:36Z
2021-11-20T03:37:13Z,42.805,6.029,13.2998,4.60033,2470.287,2021-11-20T05:38:40Z
2021-11-20T03:40:16Z,42.805,6.029,13.2999,4.60046,2470.273,2021-11-20T05:41:43Z
2021-11-20T03:43:19Z,42.805,6.029,13.3003,4.60039,2470.227,2021-11-20T05:44:46Z
2021-11-20T03:46:23Z,42.805,6.029,13.3004,4.60045,2470.287,2021-11-20T05:47:49Z
2021-11-20T03:49:26Z,42.805,6.029,13.2996,4.60032,2470.287,2021-11-20T05:50:52Z
2021-11-20T03:52:29Z,42.805,6.029,13.3004,4.60053,2470.297,2021-11-20T05:53:55Z
2021-11-20T03:55:32Z,42.805,6.029,13.3002,4.60044,2470.273,2021-11-20T05:56:58Z
2021-11-20T03:58:35Z,42.805,6.029,13.3011,4.60041,2470.287,2021-11-20T06:00:01Z
2021-11-20T04:01:38Z,42.805,6.029,13.3006,4.60054,2470.297,2021-11-20T06:03:05Z
2021-11-20T04:04:41Z,42.805,6.029,13.3004,4.60057,2470.273,2021-11-20T06:06:08Z
2021-11-20T04:07:44Z,42.805,6.029,13.2996,4.60049,2470.297,2021-11-20T06:09:11Z
2021-11-20T04:10:48Z,42.805,6.029,13.3005,4.60029,2470.32,2021-11-20T06:12:14Z
2021-11-20T04:13:51Z,42.805,6.029,13.3005,4.60035,2470.32,2021-11-20T06:15:17Z
2021-11-20T04:16:54Z,42.805,6.029,13.3005,4.60046,2470.273,2021-11-20T06:18:20Z
2021-11-20T04:19:57Z,42.805,6.029,13.3000,4.60044,2470.273,2021-11-20T06:21:23Z
2021-11-20T04:23:00Z,42.805,6.029,13.2996,4.60036,2470.297,2021-11-20T06:24:26Z
2021-11-20T04:26:03Z,42.805,6.029,13.2998,4.60062,2470.297,2021-11-20T06:27:30Z
2021-11-20T04:29:06Z,42.805,6.029,13.3014,4.60059,2470.273,2021-11-20T06:30:33Z
2021-11-20T04:32:09Z,42.805,6.029,13.3016,4.60050,2470.32,2021-11-20T06:33:36Z
2021-11-20T04:35:13Z,42.805,6.029,13.3009,4.60039,2470.32,2021-11-20T06:36:39Z
2021-11-20T04:38:16Z,42.805,6.029,13.2998,4.60044,2470.32,2021-11-20T06:39:42Z
2021-11-20T04:41:19Z,42.805,6.029,13.3004,4.60030,2470.297,2021-11-20T06:42:45Z
2021-11-20T04:44:22Z,42.805,6.029,13.3002,4.60039,2470.343,2021-11-20T06:45:48Z
2021-11-20T04:47:25Z,42.805,6.029,13.3000,4.60039,2470.357,2021-11-20T06:48:51Z
2021-11-20T04:50:28Z,42.805,6.029,13.3001,4.60038,2470.366,2021-11-20T06:51:55Z
2021-11-20T04:53:31Z,42.805,6.029,13.2998,4.60034,2470.334,2021-11-20T06:54:58Z
2021-11-20T04:56:34Z,42.805,6.029,13.3005,4.60049,2470.334,2021-11-20T06:58:01Z
2021-11-20T04:59:38Z,42.805,6.029,13.2998,4.60047,2470.32,2021-11-20T07:01:04Z
2021-11-20T05:02:41Z,42.805,6.029,13.2997,4.60046,2470.343,2021-11-20T07:04:07Z
2021-11-20T05:05:44Z,42.805,6.029,13.3000,4.60036,2470.357,2021-11-20T07:07:10Z
2021-11-20T05:08:47Z,42.805,6.029,13.3000,4.60036,2470.343,2021-11-20T07:10:13Z
2021-11-20T05:11:50Z,42.805,6.029,13.3000,4.60029,2470.357,2021-11-20T07:13:16Z
2021-11-20T05:14:53Z,42.805,6.029,13.3000,4.60030,2470.357,2021-11-20T07:16:20Z
2021-11-20T05:17:56Z,42.805,6.029,13.3009,4.60029,2470.366,2021-11-20T07:19:23Z
2021-11-20T05:20:59Z,42.805,6.029,13.3004,4.60042,2470.33,2021-11-20T07:22:26Z
2021-11-20T05:24:03Z,42.805,6.029,13.2998,4.60043,2470.39,2021-11-20T07:25:29Z
2021-11-20T05:27:06Z,42.805,6.029,13.3016,4.60067,2470.357,2021-11-20T07:28:32Z
2021-11-20T05:30:09Z,42.805,6.029,13.3016,4.60069,2470.404,2021-11-20T07:31:35Z
2021-11-20T05:33:12Z,42.805,6.029,13.3016,4.60046,2470.366,2021-11-20T07:34:38Z
2021-11-20T05:36:15Z,42.805,6.029,13.3021,4.60070,2470.404,2021-11-20T07:37:41Z
2021-11-20T05:39:18Z,42.805,6.029,13.3021,4.60069,2470.366,2021-11-20T07:40:45Z
2021-11-20T05:42:21Z,42.805,6.029,13.3021,4.60074,2470.39,2021-11-20T07:43:48Z
2021-11-20T05:45:24Z,42.805,6.029,13.3005,4.60067,2470.39,2021-11-20T07:46:51Z
2021-11-20T05:48:28Z,42.805,6.029,13.3034,4.60078,2470.404,2021-11-20T07:49:54Z
2021-11-20T05:51:31Z,42.805,6.029,13.3021,4.60067,2470.39,2021-11-20T07:52:57Z
2021-11-20T05:54:34Z,42.805,6.029,13.3013,4.60072,2470.413,2021-11-20T07:56:00Z
2021-11-20T05:57:37Z,42.805,6.029,13.3024,4.60084,2470.39,2021-11-20T07:59:03Z
2021-11-20T06:00:40Z,42.805,6.029,13.3027,4.60062,2470.413,2021-11-20T08:02:06Z
2021-11-20T06:03:43Z,42.805,6.029,13.3020,4.60070,2470.366,2021-11-20T08:05:10Z
2021-11-20T06:06:46Z,42.805,6.029,13.2998,4.60041,2470.413,2021-11-20T08:08:13Z
2021-11-20T06:09:49Z,42.805,6.029,13.2997,4.60031,2470.427,2021-11-20T08:11:16Z
2021-11-20T06:12:53Z,42.805,6.029,13.3001,4.60041,2470.437,2021-11-20T08:14:19Z
2021-11-20T06:15:56Z,42.805,6.029,13.3011,4.60055,2470.413,2021-11-20T08:17:22Z
2021-11-20T06:18:59Z,42.805,6.029,13.3026,4.60057,2470.45,2021-11-20T08:20:25Z
2021-11-20T06:22:02Z,42.805,6.029,13.3014,4.60066,2470.404,2021-11-20T08:23:28Z
2021-11-20T06:25:05Z,42.805,6.029,13.3018,4.60067,2470.45,2021-11-20T08:26:31Z
2021-11-20T06:28:08Z,42.805,6.029,13.3015,4.60074,2470.427,2021-11-20T08:29:34Z
2021-11-20T06:31:11Z,42.805,6.029,13.3021,4.60072,2470.376,2021-11-20T08:32:38Z
2021-11-20T06:34:14Z,42.805,6.029,13.3009,4.60059,2470.427,2021-11-20T08:35:41Z
2021-11-20T06:37:17Z,42.805,6.029,13.3014,4.60057,2470.474,2021-11-20T08:38:44Z
2021-11-20T06:40:21Z,42.805,6.029,13.3011,4.60067,2470.437,2021-11-20T08:41:47Z
2021-11-20T06:43:24Z,42.805,6.029,13.3029,4.60069,2470.437,2021-11-20T08:44:50Z
2021-11-20T06:46:27Z,42.805,6.029,13.3021,4.60076,2470.45,2021-11-20T08:47:53Z
2021-11-20T06:49:30Z,42.805,6.029,13.3013,4.60074,2470.413,2021-11-20T08:50:56Z
2021-11-20T06:52:33Z,42.805,6.029,13.3016,4.60069,2470.437,2021-11-20T08:54:00Z
2021-11-20T06:55:36Z,42.805,6.029,13.3005,4.60039,2470.474,2021-11-20T08:57:03Z
2021-11-20T06:58:39Z,42.805,6.029,13.3005,4.60038,2470.427,2021-11-20T09:00:06Z
2021-11-20T07:01:42Z,42.805,6.029,13.3006,4.60059,2470.46,2021-11-20T09:03:09Z
2021-11-20T07:04:46Z,42.805,6.029,13.3021,4.60069,2470.427,2021-11-20T09:06:12Z
2021-11-20T07:07:49Z,42.805,6.029,13.3005,4.60060,2470.46,2021-11-20T09:09:15Z
2021-11-20T07:10:52Z,42.805,6.029,13.3033,4.60073,2470.45,2021-11-20T09:12:18Z
2021-11-20T07:13:55Z,42.805,6.029,13.3014,4.60049,2470.45,2021-11-20T09:15:21Z
2021-11-20T07:16:58Z,42.805,6.029,13.3009,4.60062,2470.427,2021-11-20T09:18:24Z
2021-11-20T07:20:01Z,42.805,6.029,13.3024,4.60057,2470.427,2021-11-20T09:21:28Z
2021-11-20T07:23:04Z,42.805,6.029,13.3013,4.60074,2470.413,2021-11-20T09:24:31Z
2021-11-20T07:26:07Z,42.805,6.029,13.3036,4.60083,2470.437,2021-11-20T09:27:34Z
2021-11-20T07:29:11Z,42.805,6.029,13.3028,4.60070,2470.474,2021-11-20T09:30:37Z
2021-11-20T07:32:14Z,42.805,6.029,13.3018,4.60083,2470.46,2021-11-20T09:33:40Z
2021-11-20T07:35:17Z,42.805,6.029,13.3021,4.60071,2470.437,2021-11-20T09:36:43Z
2021-11-20T07:38:20Z,42.805,6.029,13.3020,4.60084,2470.413,2021-11-20T09:39:46Z
2021-11-20T07:41:23Z,42.805,6.029,13.3015,4.60083,2470.427,2021-11-20T09:42:49Z
2021-11-20T07:44:26Z,42.805,6.029,13.3019,4.60061,2470.413,2021-11-20T09:45:53Z
2021-11-20T07:47:29Z,42.805,6.029,13.3022,4.60068,2470.474,2021-11-20T09:48:56Z
2021-11-20T07:50:32Z,42.805,6.029,13.3026,4.60058,2470.46,2021-11-20T09:51:59Z
2021-11-20T07:53:36Z,42.805,6.029,13.3029,4.60079,2470.45,2021-11-20T09:55:02Z
2021-11-20T07:56:39Z,42.805,6.029,13.3020,4.60091,2470.45,2021-11-20T09:58:05Z
2021-11-20T07:59:42Z,42.805,6.029,13.3043,4.60083,2470.427,2021-11-20T10:01:08Z
2021-11-20T08:02:45Z,42.805,6.029,13.3020,4.60075,2470.45,2021-11-20T10:04:11Z
2021-11-20T08:05:48Z,42.805,6.029,13.3005,4.60081,2470.427,2021-11-20T10:07:14Z
2021-11-20T08:08:51Z,42.805,6.029,13.3022,4.60097,2470.437,2021-11-20T10:10:18Z
2021-11-20T08:11:54Z,42.805,6.029,13.3013,4.60048,2470.46,2021-11-20T10:13:21Z
2021-11-20T08:14:57Z,42.805,6.029,13.3024,4.60086,2470.46,2021-11-20T10:16:24Z
2021-11-20T08:18:01Z,42.805,6.029,13.3017,4.60072,2470.45,2021-11-20T10:19:27Z
2021-11-20T08:21:04Z,42.805,6.029,13.3008,4.60079,2470.474,2021-11-20T10:22:30Z
2021-11-20T08:24:07Z,42.805,6.029,13.3012,4.60075,2470.46,2021-11-20T10:25:33Z
2021-11-20T08:27:10Z,42.805,6.029,13.3033,4.60075,2470.45,2021-11-20T10:28:36Z
2021-11-20T08:30:13Z,42.805,6.029,13.3030,4.60072,2470.437,2021-11-20T10:31:40Z
2021-11-20T08:33:16Z,42.805,6.029,13.3018,4.60076,2470.437,2021-11-20T10:34:43Z
2021-11-20T08:36:19Z,42.805,6.029,13.3006,4.60057,2470.474,2021-11-20T10:37:46Z
2021-11-20T08:39:23Z,42.805,6.029,13.3012,4.60064,2470.46,2021-11-20T10:40:49Z
2021-11-20T08:42:26Z,42.805,6.029,13.3009,4.60073,2470.437,2021-11-20T10:43:52Z
2021-11-20T08:45:29Z,42.805,6.029,13.3013,4.60059,2470.46,2021-11-20T10:46:55Z
2021-11-20T08:48:32Z,42.805,6.029,13.3031,4.60064,2470.437,2021-11-20T10:49:58Z
2021-11-20T08:51:35Z,42.805,6.029,13.3010,4.60080,2470.413,2021-11-20T10:53:01Z
2021-11-20T08:54:38Z,42.805,6.029,13.3021,4.60066,2470.437,2021-11-20T10:56:05Z
2021-11-20T08:57:41Z,42.805,6.029,13.3025,4.60079,2470.45,2021-11-20T10:59:08Z
2021-11-20T09:00:44Z,42.805,6.029,13.3017,4.60085,2470.404,2021-11-20T11:02:11Z
2021-11-20T09:03:48Z,42.805,6.029,13.3019,4.60091,2470.413,2021-11-20T11:05:14Z
2021-11-20T09:06:51Z,42.805,6.029,13.3027,4.60054,2470.427,2021-11-20T11:08:17Z
2021-11-20T09:09:54Z,42.805,6.029,13.3005,4.60086,2470.437,2021-11-20T11:11:20Z
2021-11-20T09:12:57Z,42.805,6.029,13.3041,4.60069,2470.45,2021-11-20T11:14:23Z
2021-11-20T09:16:00Z,42.805,6.029,13.3024,4.60093,2470.437,2021-11-20T11:17:26Z
2021-11-20T09:19:03Z,42.805,6.029,13.3026,4.60102,2470.427,2021-11-20T11:20:30Z
2021-11-20T09:22:06Z,42.805,6.029,13.3026,4.60092,2470.437,2021-11-20T11:23:33Z
2021-11-20T09:25:09Z,42.805,6.029,13.3032,4.60092,2470.437,2021-11-20T11:26:36Z
2021-11-20T09:28:13Z,42.805,6.029,13.3032,4.60099,2470.45,2021-11-20T11:29:39Z
2021-11-20T09:31:16Z,42.805,6.029,13.3027,4.60083,2470.413,2021-11-20T11:32:42Z
2021-11-20T09:34:19Z,42.805,6.029,13.3023,4.60081,2470.413,2021-11-20T11:35:45Z
2021-11-20T09:37:22Z,42.805,6.029,13.3034,4.60094,2470.437,2021-11-20T11:38:48Z
2021-11-20T09:40:25Z,42.805,6.029,13.3042,4.60070,2470.413,2021-11-20T11:41:51Z
2021-11-20T09:43:28Z,42.805,6.029,13.3028,4.60082,2470.437,2021-11-20T11:44:55Z
2021-11-20T09:46:31Z,42.805,6.029,13.3026,4.60073,2470.437,2021-11-20T11:47:58Z
2021-11-20T09:49:34Z,42.805,6.029,13.3000,4.60066,2470.413,2021-11-20T11:51:01Z
2021-11-20T09:52:38Z,42.805,6.029,13.3005,4.60067,2470.427,2021-11-20T11:54:04Z
2021-11-20T09:55:41Z,42.805,6.029,13.3002,4.60029,2470.39,2021-11-20T11:57:07Z
2021-11-20T09:58:44Z,42.805,6.029,13.2998,4.60042,2470.413,2021-11-20T12:00:10Z
2021-11-20T10:01:47Z,42.805,6.029,13.3000,4.60054,2470.413,2021-11-20T12:03:13Z
2021-11-20T10:04:50Z,42.805,6.029,13.3019,4.60054,2470.413,2021-11-20T12:06:16Z
2021-11-20T10:07:53Z,42.805,6.029,13.3012,4.60097,2470.413,2021-11-20T12:09:20Z
2021-11-20T10:10:56Z,42.805,6.029,13.3027,4.60057,2470.437,2021-11-20T12:12:23Z
2021-11-20T10:13:59Z,42.805,6.029,13.3033,4.60049,2470.427,2021-11-20T12:15:26Z
2021-11-20T10:17:03Z,42.805,6.029,13.3021,4.60096,2470.413,2021-11-20T12:18:29Z
2021-11-20T10:20:06Z,42.805,6.029,13.3025,4.60069,2470.413,2021-11-20T12:21:32Z
2021-11-20T10:23:09Z,42.805,6.029,13.3040,4.60079,2470.39,2021-11-20T12:24:35Z
2021-11-20T10:26:12Z,42.805,6.029,13.3029,4.60079,2470.413,2021-11-20T12:27:38Z
2021-11-20T10:29:15Z,42.805,6.029,13.3021,4.60081,2470.39,2021-11-20T12:30:42Z
2021-11-20T10:32:18Z,42.805,6.029,13.3012,4.60077,2470.366,2021-11-20T12:33:45Z
2021-11-20T10:35:21Z,42.805,6.029,13.3029,4.60077,2470.404,2021-11-20T12:36:48Z
2021-11-20T10:38:25Z,42.805,6.029,13.3032,4.60085,2470.366,2021-11-20T12:39:51Z
2021-11-20T10:41:28Z,42.805,6.029,13.3018,4.60072,2470.343,2021-11-20T12:42:54Z
2021-11-20T10:44:31Z,42.805,6.029,13.3029,4.60091,2470.427,2021-11-20T12:45:57Z
2021-11-20T10:47:34Z,42.805,6.029,13.3043,4.60092,2470.39,2021-11-20T12:49:00Z
2021-11-20T10:50:37Z,42.805,6.029,13.3041,4.60086,2470.366,2021-11-20T12:52:03Z
2021-11-20T10:53:40Z,42.805,6.029,13.3033,4.60088,2470.33,2021-11-20T12:55:07Z
2021-11-20T10:56:43Z,42.805,6.029,13.3019,4.60087,2470.353,2021-11-20T12:58:10Z
2021-11-20T10:59:46Z,42.805,6.029,13.3015,4.60087,2470.38,2021-11-20T13:01:13Z
2021-11-20T11:02:50Z,42.805,6.029,13.3017,4.60072,2470.343,2021-11-20T13:04:16Z
2021-11-20T11:05:53Z,42.805,6.029,13.3025,4.60103,2470.366,2021-11-20T13:07:19Z
2021-11-20T11:08:56Z,42.805,6.029,13.3033,4.60084,2470.39,2021-11-20T13:10:22Z
2021-11-20T11:11:59Z,42.805,6.029,13.3056,4.60114,2470.366,2021-11-20T13:13:25Z
2021-11-20T11:15:02Z,42.805,6.029,13.3026,4.60033,2470.38,2021-11-20T13:16:28Z
2021-11-20T11:18:05Z,42.805,6.029,13.3024,4.60079,2470.38,2021-11-20T13:19:32Z
2021-11-20T11:21:08Z,42.805,6.029,13.3039,4.60122,2470.366,2021-11-20T13:22:35Z
2021-11-20T11:24:11Z,42.805,6.029,13.3021,4.60102,2470.39,2021-11-20T13:25:38Z
2021-11-20T11:27:15Z,42.805,6.029,13.3048,4.60072,2470.357,2021-11-20T13:28:41Z
2021-11-20T11:30:18Z,42.805,6.029,13.3033,4.60096,2470.343,2021-11-20T13:31:44Z
2021-11-20T11:33:21Z,42.805,6.029,13.3040,4.60131,2470.343,2021-11-20T13:34:47Z
2021-11-20T11:36:24Z,42.805,6.029,13.3030,4.60107,2470.366,2021-11-20T13:37:50Z
2021-11-20T11:39:27Z,42.805,6.029,13.3038,4.60119,2470.366,2021-11-20T13:40:53Z
2021-11-20T11:42:30Z,42.805,6.029,13.3061,4.60097,2470.334,2021-11-20T13:43:57Z
2021-11-20T11:45:33Z,42.805,6.029,13.3036,4.60098,2470.357,2021-11-20T13:47:00Z
2021-11-20T11:48:36Z,42.805,6.029,13.3044,4.60102,2470.343,2021-11-20T13:50:03Z
2021-11-20T11:51:40Z,42.805,6.029,13.3059,4.60095,2470.357,2021-11-20T13:53:06Z
2021-11-20T11:54:43Z,42.805,6.029,13.3034,4.60077,2470.357,2021-11-20T13:56:09Z
2021-11-20T11:57:46Z,42.805,6.029,13.3053,4.60062,2470.31,2021-11-20T13:59:12Z
2021-11-20T12:00:49Z,42.805,6.029,13.3034,4.60074,2470.357,2021-11-20T14:02:15Z
2021-11-20T12:03:52Z,42.805,6.029,13.3030,4.60086,2470.357,2021-11-20T14:05:18Z
2021-11-20T12:06:55Z,42.805,6.029,13.3045,4.60099,2470.334,2021-11-20T14:08:22Z
2021-11-20T12:09:58Z,42.805,6.029,13.3041,4.60102,2470.334,2021-11-20T14:11:25Z
2021-11-20T12:13:01Z,42.805,6.029,13.3061,4.60116,2470.31,2021-11-20T14:14:28Z
2021-11-20T12:16:05Z,42.805,6.029,13.3014,4.60102,2470.357,2021-11-20T14:17:31Z
2021-11-20T12:19:08Z,42.805,6.029,13.3047,4.60097,2470.32,2021-11-20T14:20:34Z
2021-11-20T12:22:11Z,42.805,6.029,13.3054,4.60092,2470.32,2021-11-20T14:23:37Z
2021-11-20T12:25:14Z,42.805,6.029,13.3051,4.60086,2470.297,2021-11-20T14:26:40Z
2021-11-20T12:28:17Z,42.805,6.029,13.3075,4.60086,2470.343,2021-11-20T14:29:44Z
2021-11-20T12:31:20Z,42.805,6.029,13.3029,4.60107,2470.32,2021-11-20T14:32:47Z
2021-11-20T12:34:23Z,42.805,6.029,13.3061,4.60081,2470.31,2021-11-20T14:35:50Z
2021-11-20T12:37:26Z,42.805,6.029,13.3055,4.60038,2470.32,2021-11-20T14:38:53Z
2021-11-20T12:40:30Z,42.805,6.029,13.3043,4.60054,2470.32,2021-11-20T14:41:56Z
2021-11-20T12:43:33Z,42.805,6.029,13.3015,4.60095,2470.32,2021-11-20T14:44:59Z
2021-11-20T12:46:36Z,42.805,6.029,13.3032,4.60092,2470.32,2021-11-20T14:48:02Z
2021-11-20T12:49:39Z,42.805,6.029,13.3070,4.60064,2470.297,2021-11-20T14:51:05Z
2021-11-20T12:52:42Z,42.805,6.029,13.3073,4.60134,2470.273,2021-11-20T14:54:09Z
2021-11-20T12:55:45Z,42.805,6.029,13.3039,4.60099,2470.31,2021-11-20T14:57:12Z
2021-11-20T12:58:48Z,42.805,6.029,13.3057,4.60066,2470.31,2021-11-20T15:00:15Z
2021-11-20T13:01:52Z,42.805,6.029,13.3044,4.60092,2470.287,2021-11-20T15:03:18Z
2021-11-20T13:04:55Z,42.805,6.029,13.3048,4.60060,2470.32,2021-11-20T15:06:21Z
2021-11-20T13:07:58Z,42.805,6.029,13.3057,4.60078,2470.297,2021-11-20T15:09:24Z
2021-11-20T13:11:01Z,42.805,6.029,13.3014,4.60067,2470.31,2021-11-20T15:12:27Z
2021-11-20T13:14:04Z,42.805,6.029,13.3022,4.60053,2470.334,2021-11-20T15:15:30Z
2021-11-20T13:17:07Z,42.805,6.029,13.3039,4.60077,2470.287,2021-11-20T15:18:34Z
2021-11-20T13:20:10Z,42.805,6.029,13.3034,4.60107,2470.31,2021-11-20T15:21:37Z
2021-11-20T13:23:13Z,42.805,6.029,13.3035,4.60122,2470.287,2021-11-20T15:24:40Z
2021-11-20T13:26:17Z,42.805,6.029,13.3054,4.60092,2470.287,2021-11-20T15:27:43Z
2021-11-20T13:29:20Z,42.805,6.029,13.3063,4.60096,2470.287,2021-11-20T15:30:46Z
2021-11-20T13:32:23Z,42.805,6.029,13.3027,4.60095,2470.273,2021-11-20T15:33:49Z
2021-11-20T13:35:26Z,42.805,6.029,13.3073,4.60097,2470.31,2021-11-20T15:36:52Z
2021-11-20T13:38:29Z,42.805,6.029,13.3030,4.60104,2470.287,2021-11-20T15:39:55Z
2021-11-20T13:41:32Z,42.805,6.029,13.3040,4.60084,2470.31,2021-11-20T15:42:59Z
2021-11-20T13:44:35Z,42.805,6.029,13.3031,4.60079,2470.273,2021-11-20T15:46:02Z
2021-11-20T13:47:38Z,42.805,6.029,13.3045,4.60086,2470.287,2021-11-20T15:49:05Z
2021-11-20T13:50:42Z,42.805,6.029,13.3045,4.60115,2470.273,2021-11-20T15:52:08Z
2021-11-20T13:53:45Z,42.805,6.029,13.3074,4.60107,2470.264,2021-11-20T15:55:11Z
2021-11-20T13:56:48Z,42.805,6.029,13.3046,4.60101,2470.287,2021-11-20T15:58:14Z
2021-11-20T13:59:51Z,42.805,6.029,13.3051,4.60091,2470.31,2021-11-20T16:01:17Z
2021-11-20T14:02:54Z,42.805,6.029,13.3059,4.60129,2470.25,2021-11-20T16:04:20Z
2021-11-20T14:05:57Z,42.805,6.029,13.3063,4.60096,2470.25,2021-11-20T16:07:24Z
2021-11-20T14:09:00Z,42.805,6.029,13.3058,4.60104,2470.287,2021-11-20T16:10:27Z
2021-11-20T14:12:03Z,42.805,6.029,13.3064,4.60106,2470.264,2021-11-20T16:13:30Z
2021-11-20T14:15:07Z,42.805,6.029,13.3063,4.60077,2470.287,2021-11-20T16:16:33Z
2021-11-20T14:18:10Z,42.805,6.029,13.3061,4.60087,2470.25,2021-11-20T16:19:36Z
2021-11-20T14:21:13Z,42.805,6.029,13.3065,4.60094,2470.31,2021-11-20T16:22:39Z
2021-11-20T14:24:16Z,42.805,6.029,13.3077,4.60099,2470.287,2021-11-20T16:25:42Z
2021-11-20T14:27:19Z,42.805,6.029,13.3047,4.60108,2470.287,2021-11-20T16:28:46Z
2021-11-20T14:30:22Z,42.805,6.029,13.3048,4.60079,2470.287,2021-11-20T16:31:49Z
2021-11-20T14:33:25Z,42.805,6.029,13.3033,4.60071,2470.297,2021-11-20T16:34:52Z
2021-11-20T14:36:28Z,42.805,6.029,13.3040,4.60186,2470.264,2021-11-20T16:37:55Z
2021-11-20T14:39:32Z,42.805,6.029,13.3038,4.60067,2470.287,2021-11-20T16:40:58Z
2021-11-20T14:42:35Z,42.805,6.029,13.3029,4.60091,2470.25,2021-11-20T16:44:01Z
2021-11-20T14:45:38Z,42.805,6.029,13.3038,4.60071,2470.287,2021-11-20T16:47:04Z
2021-11-20T14:48:41Z,42.805,6.029,13.3019,4.60095,2470.273,2021-11-20T16:50:07Z
2021-11-20T14:51:44Z,42.805,6.029,13.3043,4.60082,2470.31,2021-11-20T16:53:11Z
2021-11-20T14:54:47Z,42.805,6.029,13.3039,4.60084,2470.264,2021-11-20T16:56:14Z
2021-11-20T14:57:50Z,42.805,6.029,13.3018,4.60109,2470.273,2021-11-20T16:59:17Z
2021-11-20T15:00:54Z,42.805,6.029,13.3012,4.60058,2470.287,2021-11-20T17:02:20Z